Location: ????????
(60.5616°N, 46.8254°E)
Time: 20:49:09
(UTC+00:00)

NOSS 3-2 (A) - Pass Details

Date: 18 February 2020
Orbit: 807 x 1401 km, 63.4° (Epoch: 25 February)

Event Time Altitude Azimuth Distance (km) Brightness Sun altitude
Rises 18:25:07 0° 302° (WNW) 3,818 7.7 -32.8°
Reaches altitude 10° 18:27:38 10° 299° (WNW) 2,943 6.8 -33.1°
Enters shadow 18:34:12 60° 235° (SW) 1,355 4.1 -33.7°
